Regional Weather Roundup
Issued by NWS Charleston, SC

Current Version | Previous Version | Graphics & Text | Print | Product List | Glossary On
Versions: 1 2 3 4 5 6 7 8 9 10 11 12 13 14 15 16 17 18 19 20 21 22 23 24 25 26 27 28 29 30 31 32 33 34 35 36 37 38 39 40 41 42 43 44 45 46 47 48 49 50
000
ASUS42 KCHS 220012
RWRCHS

REGIONAL WEATHER ROUNDUP
NATIONAL WEATHER SERVICE CHARLESTON SC
800 PM EDT THU MAY 21 2015

NOTE: "FAIR" INDICATES FEW OR NO CLOUDS BELOW 12,000 FEET WITH NO
SIGNIFICANT WEATHER AND/OR OBSTRUCTIONS TO VISIBILITY.

NOT ALL STATIONS ARE QUALITY CONTROLLED BY THE NATIONAL
WEATHER SERVICE. USE DATA WITH CAUTION...ESPECIALLY
DEWPOINT OBSERVATIONS.

SCZ027-030-031-034>040-042>050-220100-
...SOUTHEAST SOUTH CAROLINA...

CITY           SKY/WX    TMP DP  RH WIND       PRES   REMARKS
N CHARLESTON   PTCLDY    85  59  41 W8        29.83R
6HR MIN TEMP:  85; 6HR MAX TEMP:  92;

WATERFRONT PAR   N/A     88  60  38 W5        29.80R
MOUNT PLEASANT FAIR      88  63  42 W6        29.83R
JOHNS ISLAND   CLEAR     86  63  45 CALM      29.84R
PINOPOLIS      NOT AVBL
MONCKS CORNER  FAIR      82  63  51 CALM      29.82R
SUMMERVILLE    FAIR      82  64  54 SW3       29.84R
BEAUFORT MCAS  PTCLDY    86  61  42 W7        29.85R
6HR MIN TEMP:  86; 6HR MAX TEMP:  93;

BEAUFORT ARPT  FAIR      86  63  45 W8        29.84R
HILTON HEAD IS CLEAR     88  63  42 SW6       29.86R
WALTERBORO     CLEAR     84  54  34 W7G16     29.85R
ALLENDALE      FAIR      86  59  39 VRB5      29.85R

...SOUTHERN MIDLANDS AND PEE DEE...

CITY           SKY/WX    TMP DP  RH WIND       PRES   REMARKS
GEORGETOWN     NOT AVBL
KINGSTREE      NOT AVBL
ORANGEBURG     CLEAR     85  57  38 W8        29.84R
6HR MIN TEMP:  85; 6HR MAX TEMP:  91;

BARNWELL       FAIR      84  59  42 W9G17     29.86R
AIKEN          FAIR      81  52  36 W12G17    29.91R
MANNING        FAIR      86 -22   1 W3        29.82R
COLUMBIA       PTCLDY    85  59  41 W13       29.83R
6HR MIN TEMP:  85; 6HR MAX TEMP:  93;

SUMTER         CLEAR     85  57  39 W8        29.80R
6HR MIN TEMP:  85; 6HR MAX TEMP:  92;

FLORENCE       CLEAR     79  63  57 E9        29.82R
6HR MIN TEMP:  79; 6HR MAX TEMP:  91;

MYRTLE BEACH   PTCLDY    82  66  57 N14       29.84R
N MYRTLE BEACH CLEAR     79  67  66 N7        29.82R
6HR MIN TEMP:  79; 6HR MAX TEMP:  88;


$$

GAZ063-065-086>088-099>101-113>116-118-119-134>141-150-220100-
...SOUTHEAST GEORGIA...

CITY           SKY/WX    TMP DP  RH WIND       PRES   REMARKS
SAVANNAH ARPT  PTCLDY    85  59  41 W8        29.86R
6HR MIN TEMP:  85; 6HR MAX TEMP:  92;

HUNTER AAF     CLEAR     86  62  43 W9        29.84R
6HR MIN TEMP:  86; 6HR MAX TEMP:  94;

FORT STEWART   CLEAR     87  60  39 W6        29.86R
6HR MIN TEMP:  87; 6HR MAX TEMP:  94;

STATESBORO     CLEAR     86  64  48 W8        29.87R
SYLVANIA       CLEAR     88  64  44 NW9       29.87R
CLAXTON        FAIR      86  61  42 W5        29.87R

...CSRA...CENTRAL AND FAR SOUTHEAST GEORGIA...

CITY           SKY/WX    TMP DP  RH WIND       PRES   REMARKS
THOMSON        CLEAR     82  64  53 W10       29.94R
AUGUSTA-BUSH   CLEAR     83  58  42 NW15      29.86R
6HR MIN TEMP:  83; 6HR MAX TEMP:  91;

AUGUSTA-DANIEL CLEAR     84  58  40 W9G16     29.89R
SWAINSBORO     FAIR      88  63  42 W12       29.90R
VIDALIA        CLEAR     86  61  42 NW5       29.89R
EASTMAN        FAIR      83  65  53 NW8G21    29.95R
HAZLEHURST     FAIR      87  63  44 W3        29.90R
ALMA           CLEAR     86  61  42 W7        29.90R
6HR MIN TEMP:  86; 6HR MAX TEMP:  92;

WAYCROSS       CLEAR     88  64  45 W8        29.90R
JESUP          FAIR      90  63  40 W5        29.89R HX  90
BAXLEY         FAIR      88  63  42 W8        29.89R
BRUNSWICK      CLEAR     86  55  35 W5        29.89R
SAINT SIMONS   NOT AVBL

$$

SCZ027-028-034-036>038-045-046-048>050-GAZ119-141-220100-
...LAKE AND SUPPLEMENTAL COASTAL OBSERVATIONS...

STATION/POSITION TIME  TEMP    WIND        PRES    WAVE   SWELL
                       AIR SEA DIR/SP/G            HT/PER HT/PER/DIR
                 (UTC) (F)     (DEG/KT/KT) (MB)    (FT/S) (FT/S/D)
UPR LAKE MARION  NOT AVBL
WINYAH BAY       NOT AVBL
LAKE MURRAY      2300   85     270/ 10/ 16 1008.8R
ACE BASIN NERRS  NOT AVBL
FORT PULASKI     2300   89 80  250/  8/ 12 1010.8R
SAPELO ISLAND    2300   90     260/ 10     1011.0S

$$

ANZ835-935-AMZ111-154-330-350-352-354-370-450-454-472-220100-
...C-MAN AND BUOY OBSERVATIONS...

STATION/POSITION TIME  TEMP    WIND        PRES    WAVE   SWELL
                       AIR SEA DIR/SP/G            HT/PER HT/PER/DIR
                 (UTC) (F)     (DEG/KT/KT) (MB)    (FT/S) (FT/S/D)
BUOY 41004       2350   78 76  220/ 14/ 17 1009.6R   4/ 5   2/ 8
BUOY 41008       2350   80 78  210/  8/ 10 1011.8R   2/ 4   2/160/ 4
FOLLY BEACH CMAN 2300   88     250/  8/ 13 1009.6R
CAPERS NEARSHORE 2308   82     250/ 10/ 14 1009.3R
FRIPP NEARSHORE  2300   85     270/  8/ 10 1009.8S


STATION/POSITION TIME  TEMP    WIND        PRES    WAVE   SWELL
                       AIR SEA DIR/SP/G            HT/PER HT/PER/DIR
                 (UTC) (F)     (DEG/KT/KT) (MB)    (FT/S) (FT/S/D)
5E ST. MARYS GA  2321      80                N/A     1/ 8
FRYING PAN BUOY  2350   79 76  270/ 14/ 19 1009.9R   5/ 6   2/ 90/ 9
BUOY 41025       2350   78 77  190/ 14/ 17 1007.2F   4/ 9   2/ 40/ 9
CAPE LOOKOUT NC  2300   76     210/ 11/ 13 1007.5S
BUOY 41002       2350   76 75  220/ 14/ 17 1012.7R   4/ 6   2/ 90/ 9
BUOY 41010       2320   80 79  220/ 12/ 14 1014.1R
ST AUGUSTINE FL  0000      73  160/  6/  7 1013.7R


$$


USA.gov is the U.S. government's official web portal to all federal, state and local government web resources and services.